Time,TemperatureF,DewpointF,PressureIn,WindDirection,WindDirectionDegrees,WindSpeedMPH,WindSpeedGustMPH,Humidity,HourlyPrecipIn,Conditions,Clouds,dailyrainin,SoftwareType,DateUTC
2013-05-13 00:07:00,66.2,30.0,30.22,South,190,4.0,9.0,26,0.00,,,0.00,weatherlink.com 1.10,2013-05-13 06:07:00,
2013-05-13 00:23:00,65.9,30.0,30.23,South,178,1.0,9.0,26,0.00,,,0.00,weatherlink.com 1.10,2013-05-13 06:23:00,
2013-05-13 00:38:00,65.7,31.0,30.23,South,188,4.0,13.0,27,0.00,,,0.00,weatherlink.com 1.10,2013-05-13 06:38:00,
2013-05-13 00:53:00,65.5,31.0,30.23,SSE,163,2.0,13.0,27,0.00,,,0.00,weatherlink.com 1.10,2013-05-13 06:53:00,
2013-05-13 01:08:00,64.8,31.0,30.23,SSW,194,4.0,8.0,28,0.00,,,0.00,weatherlink.com 1.10,2013-05-13 07:08:00,
2013-05-13 01:23:00,64.5,30.0,30.23,SSW,203,6.0,12.0,27,0.00,,,0.00,weatherlink.com 1.10,2013-05-13 07:23:00,
2013-05-13 01:38:00,64.2,29.0,30.23,SSW,201,6.0,9.0,27,0.00,,,0.00,weatherlink.com 1.10,2013-05-13 07:38:00,
2013-05-13 01:54:00,63.7,29.0,30.23,SSW,195,3.0,6.0,27,0.00,,,0.00,weatherlink.com 1.10,2013-05-13 07:54:00,
2013-05-13 02:09:00,63.5,30.0,30.23,SSW,194,7.0,11.0,28,0.00,,,0.00,weatherlink.com 1.10,2013-05-13 08:09:00,
2013-05-13 02:24:00,63.3,30.0,30.23,South,182,7.0,10.0,28,0.00,,,0.00,weatherlink.com 1.10,2013-05-13 08:24:00,
2013-05-13 02:39:00,63.2,30.0,30.23,SSW,199,6.0,7.0,28,0.00,,,0.00,weatherlink.com 1.10,2013-05-13 08:39:00,
2013-05-13 02:54:00,62.8,30.0,30.23,South,191,3.0,7.0,29,0.00,,,0.00,weatherlink.com 1.10,2013-05-13 08:54:00,
2013-05-13 03:10:00,62.3,30.0,30.23,SSW,196,3.0,6.0,30,0.00,,,0.00,weatherlink.com 1.10,2013-05-13 09:10:00,
2013-05-13 03:25:00,62.0,31.0,30.23,SSW,198,4.0,8.0,31,0.00,,,0.00,weatherlink.com 1.10,2013-05-13 09:25:00,
2013-05-13 03:40:00,61.9,31.0,30.24,SSW,200,5.0,7.0,31,0.00,,,0.00,weatherlink.com 1.10,2013-05-13 09:40:00,
2013-05-13 03:55:00,61.8,32.0,30.24,SSW,194,2.0,8.0,32,0.00,,,0.00,weatherlink.com 1.10,2013-05-13 09:55:00,
2013-05-13 04:11:00,61.7,32.0,30.24,South,190,2.0,8.0,33,0.00,,,0.00,weatherlink.com 1.10,2013-05-13 10:11:00,
2013-05-13 04:26:00,61.5,32.0,30.24,South,190,4.0,11.0,33,0.00,,,0.00,weatherlink.com 1.10,2013-05-13 10:26:00,
2013-05-13 04:41:00,61.2,33.0,30.24,South,191,3.0,8.0,34,0.00,,,0.00,weatherlink.com 1.10,2013-05-13 10:41:00,
2013-05-13 04:56:00,61.0,33.0,30.24,South,180,3.0,10.0,35,0.00,,,0.00,weatherlink.com 1.10,2013-05-13 10:56:00,
2013-05-13 05:11:00,60.5,33.0,30.24,SSW,192,2.0,8.0,36,0.00,,,0.00,weatherlink.com 1.10,2013-05-13 11:11:00,
2013-05-13 05:26:00,60.4,33.0,30.24,South,181,3.0,10.0,36,0.00,,,0.00,weatherlink.com 1.10,2013-05-13 11:26:00,
2013-05-13 05:42:00,60.0,34.0,30.24,South,184,4.0,5.0,38,0.00,,,0.00,weatherlink.com 1.10,2013-05-13 11:42:00,
2013-05-13 05:57:00,59.5,34.0,30.25,South,169,2.0,6.0,38,0.00,,,0.00,weatherlink.com 1.10,2013-05-13 11:57:00,
2013-05-13 06:12:00,59.1,34.0,30.25,South,188,2.0,5.0,39,0.00,,,0.00,weatherlink.com 1.10,2013-05-13 12:12:00,
2013-05-13 06:27:00,59.0,34.0,30.25,South,178,2.0,4.0,39,0.00,,,0.00,weatherlink.com 1.10,2013-05-13 12:27:00,
2013-05-13 06:42:00,59.4,34.0,30.26,South,173,2.0,3.0,39,0.00,,,0.00,weatherlink.com 1.10,2013-05-13 12:42:00,
2013-05-13 06:58:00,59.9,35.0,30.27,SSE,159,3.0,5.0,39,0.00,,,0.00,weatherlink.com 1.10,2013-05-13 12:58:00,
2013-05-13 07:14:00,61.1,35.0,30.27,South,174,2.0,6.0,38,0.00,,,0.00,weatherlink.com 1.10,2013-05-13 13:14:00,
2013-05-13 07:29:00,61.9,35.0,30.27,South,178,2.0,7.0,37,0.00,,,0.00,weatherlink.com 1.10,2013-05-13 13:29:00,
2013-05-13 07:44:00,62.5,35.0,30.27,SSE,154,2.0,6.0,36,0.00,,,0.00,weatherlink.com 1.10,2013-05-13 13:44:00,
2013-05-13 07:59:00,63.4,36.0,30.28,SSE,168,5.0,6.0,36,0.00,,,0.00,weatherlink.com 1.10,2013-05-13 13:59:00,
2013-05-13 08:14:00,64.1,36.0,30.28,SSE,166,2.0,6.0,35,0.00,,,0.00,weatherlink.com 1.10,2013-05-13 14:14:00,
2013-05-13 08:30:00,64.8,36.0,30.29,ESE,106,2.0,6.0,34,0.00,,,0.00,weatherlink.com 1.10,2013-05-13 14:30:00,
2013-05-13 08:45:00,65.8,36.0,30.29,SSE,151,5.0,6.0,33,0.00,,,0.00,weatherlink.com 1.10,2013-05-13 14:45:00,
2013-05-13 09:00:00,66.9,36.0,30.29,East,98,1.0,7.0,32,0.00,,,0.00,weatherlink.com 1.10,2013-05-13 15:00:00,
2013-05-13 09:15:00,67.9,35.0,30.29,ESE,119,3.0,7.0,30,0.00,,,0.00,weatherlink.com 1.10,2013-05-13 15:15:00,
2013-05-13 09:31:00,67.9,35.0,30.29,SSW,199,1.0,9.0,30,0.00,,,0.00,weatherlink.com 1.10,2013-05-13 15:31:00,
2013-05-13 09:46:00,68.9,35.0,30.29,SE,130,5.0,7.0,29,0.00,,,0.00,weatherlink.com 1.10,2013-05-13 15:46:00,
2013-05-13 10:01:00,69.5,36.0,30.28,SSE,159,2.0,6.0,29,0.00,,,0.00,weatherlink.com 1.10,2013-05-13 16:01:00,
2013-05-13 10:16:00,70.1,35.0,30.29,ESE,113,5.0,5.0,27,0.00,,,0.00,weatherlink.com 1.10,2013-05-13 16:16:00,
2013-05-13 10:31:00,73.5,34.0,30.28,NE,44,5.0,8.0,24,0.00,,,0.00,weatherlink.com 1.10,2013-05-13 16:31:00,
2013-05-13 10:47:00,73.9,34.0,30.28,SW,221,2.0,10.0,23,0.00,,,0.00,weatherlink.com 1.10,2013-05-13 16:47:00,
2013-05-13 11:02:00,74.4,34.0,30.27,SE,146,4.0,9.0,23,0.00,,,0.00,weatherlink.com 1.10,2013-05-13 17:02:00,
2013-05-13 11:17:00,77.5,34.0,30.27,SE,130,9.0,12.0,21,0.00,,,0.00,weatherlink.com 1.10,2013-05-13 17:17:00,
2013-05-13 11:32:00,77.3,30.0,30.26,SE,134,7.0,16.0,18,0.00,,,0.00,weatherlink.com 1.10,2013-05-13 17:32:00,
2013-05-13 11:48:00,78.3,30.0,30.26,SE,139,4.0,13.0,17,0.00,,,0.00,weatherlink.com 1.10,2013-05-13 17:48:00,
2013-05-13 12:03:00,78.6,30.0,30.26,East,99,1.0,13.0,17,0.00,,,0.00,weatherlink.com 1.10,2013-05-13 18:03:00,
2013-05-13 12:18:00,80.0,28.0,30.25,East,98,5.0,14.0,15,0.00,,,0.00,weatherlink.com 1.10,2013-05-13 18:18:00,
2013-05-13 12:33:00,81.4,31.0,30.24,ESE,118,10.0,10.0,16,0.00,,,0.00,weatherlink.com 1.10,2013-05-13 18:33:00,
2013-05-13 12:48:00,81.7,22.0,30.23,ESE,117,3.0,13.0,11,0.00,,,0.00,weatherlink.com 1.10,2013-05-13 18:48:00,
2013-05-13 13:04:00,82.0,20.0,30.23,SE,138,9.0,16.0,10,0.00,,,0.00,weatherlink.com 1.10,2013-05-13 19:04:00,
2013-05-13 13:19:00,82.1,20.0,30.22,ESE,123,8.0,13.0,10,0.00,,,0.00,weatherlink.com 1.10,2013-05-13 19:19:00,
2013-05-13 13:34:00,81.2,19.0,30.22,ENE,75,9.0,13.0,10,0.00,,,0.00,weatherlink.com 1.10,2013-05-13 19:34:00,
2013-05-13 13:49:00,82.5,20.0,30.21,South,185,3.0,9.0,10,0.00,,,0.00,weatherlink.com 1.10,2013-05-13 19:49:00,
2013-05-13 14:04:00,82.1,28.0,30.20,ENE,68,7.0,9.0,14,0.00,,,0.00,weatherlink.com 1.10,2013-05-13 20:04:00,
2013-05-13 14:19:00,83.8,21.0,30.20,SE,138,5.0,10.0,10,0.00,,,0.00,weatherlink.com 1.10,2013-05-13 20:19:00,
2013-05-13 14:35:00,83.1,18.0,30.19,South,178,11.0,13.0,9,0.00,,,0.00,weatherlink.com 1.10,2013-05-13 20:35:00,
2013-05-13 14:50:00,83.6,21.0,30.18,SE,136,3.0,15.0,10,0.00,,,0.00,weatherlink.com 1.10,2013-05-13 20:50:00,
2013-05-13 15:05:00,85.2,20.0,30.17,SSE,168,9.0,12.0,9,0.00,,,0.00,weatherlink.com 1.10,2013-05-13 21:05:00,
2013-05-13 15:21:00,85.8,23.0,30.17,SSE,165,6.0,12.0,10,0.00,,,0.00,weatherlink.com 1.10,2013-05-13 21:21:00,
2013-05-13 15:36:00,85.5,20.0,30.16,SSE,152,3.0,14.0,9,0.00,,,0.00,weatherlink.com 1.10,2013-05-13 21:36:00,
2013-05-13 15:51:00,85.0,22.0,30.15,SSW,213,3.0,8.0,10,0.00,,,0.00,weatherlink.com 1.10,2013-05-13 21:51:00,
2013-05-13 16:06:00,85.8,20.0,30.14,ESE,121,15.0,15.0,9,0.00,,,0.00,weatherlink.com 1.10,2013-05-13 22:06:00,
2013-05-13 16:21:00,86.1,18.0,30.14,East,96,5.0,9.0,8,0.00,,,0.00,weatherlink.com 1.10,2013-05-13 22:21:00,
2013-05-13 16:37:00,85.9,18.0,30.13,SSW,202,4.0,13.0,8,0.00,,,0.00,weatherlink.com 1.10,2013-05-13 22:37:00,
2013-05-13 16:52:00,86.4,21.0,30.13,South,175,4.0,10.0,9,0.00,,,0.00,weatherlink.com 1.10,2013-05-13 22:52:00,
2013-05-13 17:07:00,85.7,20.0,30.12,South,175,4.0,10.0,9,0.00,,,0.00,weatherlink.com 1.10,2013-05-13 23:07:00,
2013-05-13 17:22:00,86.2,18.0,30.12,SSE,150,13.0,14.0,8,0.00,,,0.00,weatherlink.com 1.10,2013-05-13 23:22:00,
2013-05-13 17:37:00,86.1,18.0,30.12,SE,140,6.0,14.0,8,0.00,,,0.00,weatherlink.com 1.10,2013-05-13 23:37:00,
2013-05-13 17:52:00,84.6,20.0,30.11,SW,217,5.0,10.0,9,0.00,,,0.00,weatherlink.com 1.10,2013-05-13 23:52:00,
2013-05-13 18:08:00,84.9,22.0,30.11,NNE,24,0.0,9.0,10,0.00,,,0.00,weatherlink.com 1.10,2013-05-14 00:08:00,
2013-05-13 18:23:00,84.5,19.0,30.11,SE,124,9.0,10.0,9,0.00,,,0.00,weatherlink.com 1.10,2013-05-14 00:23:00,
2013-05-13 18:38:00,81.9,20.0,30.11,South,183,5.0,9.0,10,0.00,,,0.00,weatherlink.com 1.10,2013-05-14 00:38:00,
2013-05-13 18:53:00,82.5,20.0,30.11,SSE,168,4.0,6.0,10,0.00,,,0.00,weatherlink.com 1.10,2013-05-14 00:53:00,
2013-05-13 19:08:00,82.1,22.0,30.11,SSE,150,3.0,7.0,11,0.00,,,0.00,weatherlink.com 1.10,2013-05-14 01:08:00,
2013-05-13 19:24:00,79.7,21.0,30.11,ESE,107,5.0,10.0,11,0.00,,,0.00,weatherlink.com 1.10,2013-05-14 01:24:00,
2013-05-13 19:39:00,78.5,20.0,30.11,SE,127,8.0,10.0,11,0.00,,,0.00,weatherlink.com 1.10,2013-05-14 01:39:00,
2013-05-13 19:54:00,77.6,21.0,30.11,SSE,150,6.0,10.0,12,0.00,,,0.00,weatherlink.com 1.10,2013-05-14 01:54:00,
2013-05-13 20:09:00,76.7,22.0,30.12,ESE,123,1.0,5.0,13,0.00,,,0.00,weatherlink.com 1.10,2013-05-14 02:09:00,
2013-05-13 20:24:00,76.1,23.0,30.12,SE,126,3.0,6.0,14,0.00,,,0.00,weatherlink.com 1.10,2013-05-14 02:24:00,
2013-05-13 20:39:00,75.2,24.0,30.12,South,187,5.0,6.0,15,0.00,,,0.00,weatherlink.com 1.10,2013-05-14 02:39:00,
2013-05-13 20:55:00,74.4,25.0,30.13,SSW,198,0.0,4.0,16,0.00,,,0.00,weatherlink.com 1.10,2013-05-14 02:55:00,
2013-05-13 21:10:00,73.0,26.0,30.13,SSW,198,1.0,2.0,17,0.00,,,0.00,weatherlink.com 1.10,2013-05-14 03:10:00,
2013-05-13 21:25:00,71.8,25.0,30.13,SSW,198,0.0,2.0,17,0.00,,,0.00,weatherlink.com 1.10,2013-05-14 03:25:00,
2013-05-13 21:40:00,70.4,26.0,30.13,SSW,198,0.0,2.0,19,0.00,,,0.00,weatherlink.com 1.10,2013-05-14 03:40:00,
2013-05-13 21:55:00,70.1,28.0,30.14,SSW,198,0.0,2.0,21,0.00,,,0.00,weatherlink.com 1.10,2013-05-14 03:55:00,
2013-05-13 22:11:00,68.8,28.0,30.14,SSW,198,0.0,1.0,22,0.00,,,0.00,weatherlink.com 1.10,2013-05-14 04:11:00,
2013-05-13 22:26:00,68.6,29.0,30.14,SSW,198,0.0,1.0,23,0.00,,,0.00,weatherlink.com 1.10,2013-05-14 04:26:00,
2013-05-13 22:41:00,67.0,27.0,30.14,ESE,105,3.0,3.0,22,0.00,,,0.00,weatherlink.com 1.10,2013-05-14 04:41:00,
2013-05-13 22:56:00,67.8,29.0,30.15,East,94,1.0,1.0,23,0.00,,,0.00,weatherlink.com 1.10,2013-05-14 04:56:00,
2013-05-13 23:11:00,67.4,27.0,30.15,East,94,0.0,1.0,22,0.00,,,0.00,weatherlink.com 1.10,2013-05-14 05:11:00,
2013-05-13 23:26:00,65.7,29.0,30.15,East,94,0.0,0.0,25,0.00,,,0.00,weatherlink.com 1.10,2013-05-14 05:26:00,
2013-05-13 23:42:00,65.4,29.0,30.15,South,172,3.0,3.0,25,0.00,,,0.00,weatherlink.com 1.10,2013-05-14 05:42:00,
2013-05-13 23:57:00,66.0,28.0,30.15,SW,228,3.0,5.0,24,0.00,,,0.00,weatherlink.com 1.10,2013-05-14 05:57:00,